Location: Newark
(48.6461°N, 4.3644°W)
Time: 14:57:13
(UTC+00:00)

Transit 4A - Pass Details

Date: 27 January 2020
Orbit: 872 x 973 km, 66.8° (Epoch: 22 February)

Event Time Altitude Azimuth Distance (km) Brightness Sun altitude
Rises 08:08:11 0° 249° (WSW) 3,528 10.6 1.2°
Reaches altitude 10° 08:10:59 10° 259° (W) 2,574 9.8 1.6°
Maximum altitude 08:16:16 32° 321° (NW) 1,483 8.6 2.3°
Drops below altitude 10° 08:21:29 10° 24° (NNE) 2,541 10.1 3.1°
Sets 08:24:15 0° 35° (NE) 3,476 10.9 3.5°
